Skip Page Navigation
NASA JPL Caltech
NASA Logo - Jet Propulsion Laboratory + View the NASA Portal
+ Center for Near-Earth Object Studies
JPL Home Earth Solar System Stars & Galaxies Technology
JPL Solar System Dynamics
BODIES ORBITS EPHEMERIDES TOOLS PHYSICAL DATA DISCOVERY FAQ SITE MAP
IMPORTANT: The SSD Announcement email list is now available. Major changes are coming in the near future, including possible hostname and/or URL changes. To be notified of such changes, subscribe to this email list.

Please visit this page for more details.


JPL Small-Body Database Browser
Search: [ help ]  
413033 Aerts (2000 XU53)
Classification: Main-belt Asteroid          SPK-ID: 2413033
Ephemeris | Orbit Diagram | Orbital Elements | Mission Design | Physical Parameters | Discovery Circumstances ]

[ show orbit diagram ]
Orbital Elements at Epoch 2458600.5 (2019-Apr-27.0) TDB
Reference: JPL 17 (heliocentric ecliptic J2000)
 Element Value Uncertainty (1-sigma)   Units 
e .1931119565500379 5.4958e-08  
a 2.324707964754931 1.6077e-08 au
q 1.87577906127365 1.2524e-07 au
i 6.786974080955671 5.9364e-06 deg
node 81.89878681050547 5.1293e-05 deg
peri 353.7003025318598 5.4926e-05 deg
M 65.6398644455812 1.9134e-05 deg
tp 2458364.443367707108
(2018-Sep-02.94336771)
6.7893e-05 TDB
period 1294.645995131425
3.54
1.343e-05
3.677e-08
d
yr
n .2780682915281833 2.8845e-09 deg/d
Q 2.773636868236212 1.9182e-08 au
  Orbit Determination Parameters
   # obs. used (total)      253  
   data-arc span      6666 days (18.25 yr)  
   first obs. used      2000-12-04  
   last obs. used      2019-03-06  
   planetary ephem.      DE431  
   SB-pert. ephem.      SB431-N16  
   condition code      0  
   norm. resid. RMS      .58771  
   source      ORB  
   producer      Otto Matic  
   solution date      2019-Jul-13 14:21:56  

Additional Information
 Earth MOID = .891039 au 
 Jupiter MOID = 2.4915 au 
 T_jup = 3.541 
[ show covariance matrix ]

Ephemeris | Orbit Diagram | Orbital Elements | Mission Design | Physical Parameters | Discovery Circumstances ]

Physical Parameter Table
Parameter Symbol Value Units Sigma Reference Notes
absolute magnitude H 17.2   n/a MPO413454  

413033 Aerts           Discovered 2000 Dec. 4 by T. Pauwels at Uccle.
Conny Aerts (b. 1966) is a Belgian astrophysicist and Professor at the Katholieke Universiteit Leuven, known for her cutting-edge and innovative work in asteroseismology and for her efforts in encouraging women to choose science as a career. She received the Francqui Prize in 2012. Name suggested by K. Lefever.
NOTE: some special characters may not display properly (any characters within {} are an attempt to place the proper accent above a character)
Reference: MPC batch dated 2019-05-18Last Updated: 2019-05-29

Alternate Designations
 2000 XU53 = 2007 UP99 
Ephemeris | Orbit Diagram | Orbital Elements | Mission Design | Physical Parameters | Discovery Circumstances ]
ABOUT SSD CREDITS/AWARDS PRIVACY/COPYRIGHT GLOSSARY LINKS
FirstGov
(server date/time)  
NASA Home Page
Site Manager:   Ryan S. Park
Webmaster  Alan B. Chamberlin